SCP
0 0 0 0 0 0 0 0 0 0 0 0 0 0 0 0 0 0 0 0 0 0 0 0 0 0 0 0 0 0 0 0 0 0 0 0 0 0 0 0 0 0 0
0 0 0 0 0 0 0 0 0 0 0 0 0 0 0 0 0 0 0 0 0 0 0 0 0 0 0 0 0 0 0 0 0 0 0 0 0 0 0 0 0 0 0
0 0 0 0 0 0 0 0 0 0 0 0 0 0 0 0 0 0 0 0 0 0 0 0 0 0 0 0 0 0 0 0 0 0 0 0 0 0 0 0 0 0 0
0 0 0 0 0 0 0 0 0 0 0 0 0 0 0 0 0 0 0 0 0 0 0 0 0 0 0 0 0 0 0 0 0 0 0 0 0 0 0 0 0 0 0
0 0 0 0 0 0 0 0 0 0 0 0 0 0 0 0 0 0 0 0 0 0 0 0 0 0 0 0 0 0 0 0 0 0 0 0 0 0 0 0 0 0 0
0 0 0 0 0 0 0 0 0 0 0 0 0 0 0 0 0 0 0 0 0 0 0 0 0 0 0 0 0 0 0 0 0 0 0 0 0 0 0 0 0 0 0
0 0 0 0 0 0 0 0 0 0 0 0 0 0 0 0 0 0 0 0 0 0 0 0 0 0 0 0 0 0 0 0 0 0 0 0 0 0 0 0 0 0 0
0 0 0 0 0 0 0 0 0 0 0 0 0 0 0 0 0 0 0 0 0 0 0 0 0 0 0 0 0 0 0 0 0 0 0 0 0 0 0 0 0 0 0
0 0 0 0 0 0 0 0 0 0 0 0 0 0 0 0 0 0 0 0 0 0 0 0 0 0 0 0 0 0 0 0 0 0 0 0 0 0 0 0 0 0 0
0 0 0 0 0 0 0 0 0 0 0 0 0 0 0 0 0 0 0 0 0 0 0 0 0 0 0 0 0 0 0 0 0 0 0 0 0 0 0 0 -0 0 0
0 0 0 0 0 0 0 0 0 0 0 0 0 0 0 0 0 0 0 0 0 0 0 0 0 0 0 0 0 0 0 0 0 0 0 0 0 0 0 0 0 0 0
0 0 0 0 0 0 0 0 0 0 0 0 0 0 0 0 0 0 0 0 0 0 0 0 0 0 0 0 0 0 0 0 0 0 0 0 0 0 0 0 0 0 0
0 0 0 0 0 0 0 0 0 0 0 0 0 0 0 0 0 0 0 0 0 0 0 0 0 0 0 0 0 0 0 0 0 0 0 0 0 0 0 0 0 0 -0
0 0 0 0 0 0 0 0 0 0 0 0 0 0 0 0 0 0 0 0 0 0 0 0 0 0 0 0 0 0 0 0 0 0 0 0 0 0 0 0 0 0 -0
0 0 0 0 0 0 0 0 0 0 0 0 0 0 0 0 0 0 0 0 0 0 0 0 0 0 0 0 0 0 0 0 0 0 0 0 0 0 0 0 0 -0 -0
0 0 0 0 0 0 0 0 0 0 0 0 0 0 0 0 0 0 0 0 0 0 0 0 0 0 0 0 0 0 0 0 0 0 0 0 0 0 0 0 0 0 0
0 0 0 0 0 0 0 0 0 0 0 0 0 0 0 0 0 0 0 0 0 0 0 0 0 0 0 0 0 0 0 0 0 0 0 -0 0 0 0 0 0 0 -0
0 0 0 0 0 0 0 0 0 0 0 0 0 0 0 0 0 -0 0 0 0 0 0 0 0 0 0 0 0 0 0 0 0 -0 -0 -0 -0 0 0 0 0 0 -0
0 0 0 0 0 0 0 0 0 0 0 0 0 0 0 -0 -0 -0 0 0 0 0 0 0 0 0 0 0 0 0 0 0 0 -0 -0 -0 -0 0 0 0 0 0 0
0 0 0 0 0 0 0 0 0 0 0 0 0 0 0 0 0 0 0 0 0 0 0 0 0 0 0 0 0 0 0 0 0 0 0 0 0 0 -0 0 0 -0 -0
0 0 0 0 0 0 0 0 0 0 0 0 0 0 0 0 0 0 0 0 0 0 0 0 0 0 0 0 0 0 0 0 0 0 0 0 -0 -0 -0 -0 -0 -0 -0
0 0 0 0 0 0 0 0 0 0 0 0 0 0 0 0 0 0 0 0 0 0 0 0 0 0 0 0 0 0 0 0 0 0 0 0 -0 -0 -0 -0 -0 -0 0
0 0 0 0 0 0 0 0 0 0 0 0 0 0 0 0 0 0 0 0 0 0 0 0 0 0 0 0 0 0 0 0 0 0 0 0 0 -0 -0 -0 -0 -0 -0
0 0 0 0 0 0 0 0 0 0 0 0 0 0 0 0 0 0 0 0 0 0 0 0 0 0 0 0 0 0 0 0 0 0 0 0 0 0 0 0 -0 -0 -0
0 0 0 0 0 0 0 0 0 0 0 0 0 0 0 0 0 0 0 0 0 0 0 0 0 0 0 0 0 0 0 0 0 0 0 0 0 0 0 0 -0 -0 -0
0 0 0 0 0 0 0 0 0 0 0 0 0 0 0 0 0 0 0 0 0 0 0 0 0 0 0 0 0 0 0 0 0 0 0 0 0 0 0 0 -0 -0 -0
Wind_Speed_500mb
33 28 23 18 13 8 5 3 10 16 19 23 27 32 35 39 41 43 44 43 39 36 36 40 45 46 49 51 53 54 56 60 73 79 64 65 67 60 58 55 53 54 49
32 28 22 18 14 8 0 6 10 13 17 20 24 30 36 40 40 39 38 36 32 34 37 41 44 48 52 55 56 55 51 52 62 70 68 65 56 58 51 55 54 41 44
33 28 25 19 13 7 2 4 7 11 15 20 25 31 36 40 38 36 37 36 33 34 37 42 49 52 56 55 53 52 50 49 54 58 66 59 60 56 52 44 37 33 33
34 30 24 19 12 6 2 2 7 11 16 21 26 30 36 40 40 36 35 35 35 38 41 44 50 51 52 52 47 47 46 46 49 56 52 59 57 50 50 49 47 43 39
35 30 24 15 10 8 6 5 9 13 16 21 26 30 34 38 40 40 38 39 42 43 44 48 50 44 47 40 34 35 41 42 45 45 50 54 53 52 50 43 46 50 42
37 31 22 17 15 12 10 9 10 14 18 22 27 30 32 35 39 41 43 44 44 45 46 52 44 43 41 30 31 35 34 36 37 39 45 51 56 51 50 49 48 47 44
40 31 25 22 19 16 12 10 11 14 18 21 25 29 32 34 38 42 44 45 43 42 43 47 46 43 40 32 29 31 31 31 34 38 45 43 49 49 49 48 44 45 46
42 35 31 26 22 17 11 11 13 15 17 21 25 30 32 33 37 41 45 46 42 39 39 39 44 45 42 41 34 36 36 33 30 29 34 45 51 55 56 56 54 49 45
45 41 35 30 24 15 10 10 12 15 18 21 26 31 34 35 37 41 46 47 46 39 36 33 38 40 40 36 36 33 33 21 15 26 40 50 53 49 43 36 29 23 28
53 45 38 32 22 13 8 8 13 17 20 24 28 32 35 36 37 41 45 48 50 44 37 33 33 35 34 32 33 30 30 25 27 35 43 38 33 31 27 22 14 10 16
55 50 43 32 22 15 13 12 18 21 25 28 32 34 36 37 38 41 43 46 50 49 43 37 33 35 35 26 30 30 31 33 34 35 31 27 27 28 22 19 13 10 15
60 53 42 31 23 19 18 19 22 28 33 35 38 36 36 37 39 42 44 44 47 48 45 39 34 34 36 27 27 27 28 27 23 22 21 23 23 21 19 16 16 8 13
63 53 41 31 26 22 22 25 28 33 39 41 40 40 36 37 39 43 45 44 46 47 44 39 34 33 34 28 26 27 24 14 16 19 23 23 22 20 17 12 8 4 3
64 52 41 33 28 28 29 31 32 34 37 38 37 37 39 37 37 41 46 46 48 50 45 38 31 30 29 25 22 20 17 16 18 19 23 26 24 18 11 5 2 9 10
60 48 39 34 32 32 31 31 31 30 31 32 31 35 39 38 37 41 44 46 49 51 54 44 33 28 26 21 18 18 19 17 17 19 23 24 19 11 3 4 7 7 24
52 42 35 34 36 33 32 32 30 26 26 25 27 32 34 37 38 39 43 44 46 49 52 48 37 27 27 20 20 18 18 17 16 16 15 13 16 13 11 16 22 33 45
40 35 37 38 34 33 34 36 36 30 29 29 28 30 33 35 38 39 42 45 44 47 48 47 40 28 26 23 21 21 17 16 13 6 2 11 19 22 23 27 33 40 49
33 31 36 36 39 37 36 38 38 39 40 36 31 34 33 37 38 39 42 46 45 45 44 45 42 31 26 25 24 20 18 15 8 12 12 14 18 23 29 32 37 40 42
31 41 40 38 40 40 43 41 41 41 43 45 42 40 43 44 44 42 43 46 45 43 43 43 40 32 26 26 25 21 17 13 18 18 16 17 20 22 30 30 33 34 33
46 50 45 44 45 46 45 45 44 44 47 50 50 47 52 55 50 45 45 48 45 42 41 40 37 31 26 24 23 18 17 23 26 21 19 21 23 23 26 27 25 23 23
51 51 50 47 48 46 47 49 48 48 50 53 55 48 50 59 58 51 47 48 46 41 38 36 34 27 22 21 20 22 27 28 24 22 22 23 22 23 23 21 18 17 13
53 55 54 49 47 49 49 49 52 54 56 59 62 60 56 61 63 58 49 48 45 41 37 33 29 22 13 15 21 28 29 24 23 24 24 24 22 21 19 19 17 17 16
57 57 57 52 48 50 53 56 60 61 61 63 64 62 58 62 64 63 51 47 46 43 38 33 28 18 10 15 21 21 19 19 22 23 24 23 21 21 19 17 18 20 20
50 52 54 54 53 53 57 59 60 61 61 63 66 68 65 66 63 65 53 49 48 43 44 38 34 29 23 21 20 22 25 28 27 25 24 23 22 21 20 21 20 21 19
50 52 55 54 56 58 62 63 64 65 65 66 69 69 67 66 66 65 51 50 52 46 46 46 42 39 37 36 32 31 32 33 32 30 29 27 23 21 21 21 20 22 22
50 52 53 53 56 57 61 64 65 67 68 68 69 70 68 65 64 67 54 51 53 52 46 51 48 46 44 42 40 37 37 38 38 36 34 31 28 26 26 26 25 25 26
Wind_Direction_500mb
189 190 191 196 195 200 220 335 4 0 353 350 347 342 337 332 327 324 320 310 301 300 304 306 308 306 304 304 301 298 293 290 285 294 299 305 300 301 302 300 295 296 287
189 191 195 195 197 199 51 19 6 353 348 346 344 343 341 338 333 331 333 330 319 311 311 310 310 310 306 305 303 301 295 291 292 293 301 303 305 306 301 301 292 306 295
192 194 195 194 193 184 115 9 351 347 346 345 346 347 346 343 340 336 336 336 330 320 319 315 313 311 309 309 307 304 300 298 292 296 301 304 303 304 305 310 308 309 321
195 196 196 193 186 177 191 308 332 338 342 343 344 346 349 349 344 338 334 331 326 325 324 322 318 315 314 310 307 305 305 298 295 300 300 299 304 308 300 302 306 312 320
199 200 195 187 194 207 224 274 308 323 333 337 340 346 350 348 347 338 330 327 326 325 325 327 328 331 325 308 303 308 310 307 303 303 303 303 304 307 310 313 311 314 314
203 199 192 195 204 216 238 267 300 317 326 333 337 341 345 348 347 342 333 327 325 324 328 329 333 330 326 314 312 317 307 303 302 301 303 305 303 305 309 311 310 311 310
203 198 200 205 209 217 234 267 295 313 319 328 331 336 341 345 345 344 338 332 323 326 326 330 334 334 337 329 316 312 307 304 306 305 304 309 307 309 307 306 302 299 298
202 203 206 205 207 217 232 265 289 302 313 321 326 331 338 342 342 343 340 338 328 325 327 332 332 334 343 338 322 310 303 305 306 300 304 310 306 305 301 298 292 284 284
204 207 204 203 202 210 236 267 289 303 312 320 324 327 332 339 340 340 339 339 335 325 325 328 329 330 333 339 339 320 312 313 312 309 309 312 313 310 306 305 301 283 281
207 204 202 198 202 210 238 289 300 307 313 319 324 327 329 333 338 337 338 338 336 334 322 326 329 326 324 329 327 325 325 329 323 315 315 317 327 334 336 335 327 275 269
203 199 200 199 207 224 252 283 302 308 313 319 321 325 326 328 333 334 335 338 335 336 329 324 325 330 327 322 319 316 310 315 320 319 323 330 340 343 344 346 338 271 249
198 197 198 205 221 240 262 280 295 305 311 318 318 318 321 324 327 329 330 336 336 334 333 326 323 326 331 317 311 326 319 317 318 324 329 329 336 335 346 353 346 309 253
194 193 202 213 229 248 271 284 295 302 312 318 319 319 320 323 326 324 325 333 334 335 334 328 319 320 332 327 316 324 320 327 328 330 326 325 328 328 330 334 340 328 249
191 197 207 221 240 262 275 283 288 301 311 315 318 318 319 323 326 319 320 327 331 333 336 332 315 308 324 328 320 328 324 320 325 322 322 325 324 320 307 311 92 110 128
193 203 217 236 254 264 272 276 288 304 308 312 319 314 317 324 323 316 315 322 328 330 331 331 320 298 306 317 307 316 316 321 319 323 329 331 330 328 304 187 178 155 129
200 213 232 245 255 260 266 273 286 292 301 309 316 316 321 324 322 315 312 316 322 325 328 328 323 300 293 300 298 298 305 313 317 325 340 0 28 55 81 113 129 135 125
213 225 241 246 246 255 265 273 279 282 294 303 308 311 316 321 322 318 313 311 315 320 324 326 321 307 285 290 287 287 293 300 294 301 87 67 69 82 97 113 129 132 128
220 239 253 254 253 259 265 271 274 284 294 299 303 306 311 314 317 317 314 309 311 314 320 323 319 307 283 280 276 280 285 279 239 175 142 114 105 105 109 118 126 127 124
246 252 252 251 256 260 261 264 273 281 288 295 300 301 306 308 310 310 312 310 307 310 314 318 319 306 281 270 269 268 267 226 183 166 154 130 123 124 120 123 127 128 128
248 252 254 256 257 259 260 265 272 280 285 290 292 299 301 303 305 303 299 304 304 303 308 313 317 304 276 263 261 249 215 187 175 175 164 151 143 139 132 132 133 134 135
254 258 256 255 258 260 262 267 274 278 282 286 290 296 296 296 301 303 292 292 300 296 298 303 309 302 273 254 238 212 187 184 186 182 172 166 160 156 150 145 151 157 159
257 259 262 265 265 266 267 269 271 274 277 281 286 288 289 289 293 297 292 281 290 287 285 289 296 295 270 233 204 191 184 197 198 184 181 177 176 174 172 165 164 159 151
255 259 263 264 265 268 271 273 274 276 277 279 281 283 286 289 290 291 288 274 277 280 272 270 271 268 224 190 183 188 204 206 200 192 192 191 188 187 180 171 167 162 153
257 259 261 263 266 267 270 272 273 273 275 278 281 285 287 287 284 283 280 270 263 270 263 257 252 241 227 203 203 218 213 202 197 196 197 204 201 196 190 181 176 165 157
263 262 261 262 264 264 266 267 269 272 275 277 279 280 281 281 280 277 271 265 259 259 258 250 244 239 233 229 219 227 217 207 200 198 201 201 203 205 200 192 182 167 166
263 263 266 268 268 267 268 269 270 271 271 273 275 276 276 274 275 274 265 258 255 253 252 247 240 236 235 233 227 220 218 214 208 202 203 208 207 204 201 194 186 180 177
Wind_Speed_850mb
33 28 23 18 13 8 5 3 10 16 19 23 27 32 35 39 41 43 44 43 39 36 36 40 45 46 49 51 53 54 56 60 73 79 64 65 67 60 58 55 53 54 49
32 28 22 18 14 8 0 6 10 13 17 20 24 30 36 40 40 39 38 36 32 34 37 41 44 48 52 55 56 55 51 52 62 70 68 65 56 58 51 55 54 41 44
33 28 25 19 13 7 2 4 7 11 15 20 25 31 36 40 38 36 37 36 33 34 37 42 49 52 56 55 53 52 50 49 54 58 66 59 60 56 52 44 37 33 33
34 30 24 19 12 6 2 2 7 11 16 21 26 30 36 40 40 36 35 35 35 38 41 44 50 51 52 52 47 47 46 46 49 56 52 59 57 50 50 49 47 43 39
35 30 24 15 10 8 6 5 9 13 16 21 26 30 34 38 40 40 38 39 42 43 44 48 50 44 47 40 34 35 41 42 45 45 50 54 53 52 50 43 46 50 42
37 31 22 17 15 12 10 9 10 14 18 22 27 30 32 35 39 41 43 44 44 45 46 52 44 43 41 30 31 35 34 36 37 39 45 51 56 51 50 49 48 47 44
40 31 25 22 19 16 12 10 11 14 18 21 25 29 32 34 38 42 44 45 43 42 43 47 46 43 40 32 29 31 31 31 34 38 45 43 49 49 49 48 44 45 46
42 35 31 26 22 17 11 11 13 15 17 21 25 30 32 33 37 41 45 46 42 39 39 39 44 45 42 41 34 36 36 33 30 29 34 45 51 55 56 56 54 49 45
45 41 35 30 24 15 10 10 12 15 18 21 26 31 34 35 37 41 46 47 46 39 36 33 38 40 40 36 36 33 33 21 15 26 40 50 53 49 43 36 29 23 28
53 45 38 32 22 13 8 8 13 17 20 24 28 32 35 36 37 41 45 48 50 44 37 33 33 35 34 32 33 30 30 25 27 35 43 38 33 31 27 22 14 10 16
55 50 43 32 22 15 13 12 18 21 25 28 32 34 36 37 38 41 43 46 50 49 43 37 33 35 35 26 30 30 31 33 34 35 31 27 27 28 22 19 13 10 15
60 53 42 31 23 19 18 19 22 28 33 35 38 36 36 37 39 42 44 44 47 48 45 39 34 34 36 27 27 27 28 27 23 22 21 23 23 21 19 16 16 8 13
63 53 41 31 26 22 22 25 28 33 39 41 40 40 36 37 39 43 45 44 46 47 44 39 34 33 34 28 26 27 24 14 16 19 23 23 22 20 17 12 8 4 3
64 52 41 33 28 28 29 31 32 34 37 38 37 37 39 37 37 41 46 46 48 50 45 38 31 30 29 25 22 20 17 16 18 19 23 26 24 18 11 5 2 9 10
60 48 39 34 32 32 31 31 31 30 31 32 31 35 39 38 37 41 44 46 49 51 54 44 33 28 26 21 18 18 19 17 17 19 23 24 19 11 3 4 7 7 24
52 42 35 34 36 33 32 32 30 26 26 25 27 32 34 37 38 39 43 44 46 49 52 48 37 27 27 20 20 18 18 17 16 16 15 13 16 13 11 16 22 33 45
40 35 37 38 34 33 34 36 36 30 29 29 28 30 33 35 38 39 42 45 44 47 48 47 40 28 26 23 21 21 17 16 13 6 2 11 19 22 23 27 33 40 49
33 31 36 36 39 37 36 38 38 39 40 36 31 34 33 37 38 39 42 46 45 45 44 45 42 31 26 25 24 20 18 15 8 12 12 14 18 23 29 32 37 40 42
31 41 40 38 40 40 43 41 41 41 43 45 42 40 43 44 44 42 43 46 45 43 43 43 40 32 26 26 25 21 17 13 18 18 16 17 20 22 30 30 33 34 33
46 50 45 44 45 46 45 45 44 44 47 50 50 47 52 55 50 45 45 48 45 42 41 40 37 31 26 24 23 18 17 23 26 21 19 21 23 23 26 27 25 23 23
51 51 50 47 48 46 47 49 48 48 50 53 55 48 50 59 58 51 47 48 46 41 38 36 34 27 22 21 20 22 27 28 24 22 22 23 22 23 23 21 18 17 13
53 55 54 49 47 49 49 49 52 54 56 59 62 60 56 61 63 58 49 48 45 41 37 33 29 22 13 15 21 28 29 24 23 24 24 24 22 21 19 19 17 17 16
57 57 57 52 48 50 53 56 60 61 61 63 64 62 58 62 64 63 51 47 46 43 38 33 28 18 10 15 21 21 19 19 22 23 24 23 21 21 19 17 18 20 20
50 52 54 54 53 53 57 59 60 61 61 63 66 68 65 66 63 65 53 49 48 43 44 38 34 29 23 21 20 22 25 28 27 25 24 23 22 21 20 21 20 21 19
50 52 55 54 56 58 62 63 64 65 65 66 69 69 67 66 66 65 51 50 52 46 46 46 42 39 37 36 32 31 32 33 32 30 29 27 23 21 21 21 20 22 22
50 52 53 53 56 57 61 64 65 67 68 68 69 70 68 65 64 67 54 51 53 52 46 51 48 46 44 42 40 37 37 38 38 36 34 31 28 26 26 26 25 25 26
Wind_Direction_850mb
189 190 191 196 195 200 220 335 4 0 353 350 347 342 337 332 327 324 320 310 301 300 304 306 308 306 304 304 301 298 293 290 285 294 299 305 300 301 302 300 295 296 287
189 191 195 195 197 199 51 19 6 353 348 346 344 343 341 338 333 331 333 330 319 311 311 310 310 310 306 305 303 301 295 291 292 293 301 303 305 306 301 301 292 306 295
192 194 195 194 193 184 115 9 351 347 346 345 346 347 346 343 340 336 336 336 330 320 319 315 313 311 309 309 307 304 300 298 292 296 301 304 303 304 305 310 308 309 321
195 196 196 193 186 177 191 308 332 338 342 343 344 346 349 349 344 338 334 331 326 325 324 322 318 315 314 310 307 305 305 298 295 300 300 299 304 308 300 302 306 312 320
199 200 195 187 194 207 224 274 308 323 333 337 340 346 350 348 347 338 330 327 326 325 325 327 328 331 325 308 303 308 310 307 303 303 303 303 304 307 310 313 311 314 314
203 199 192 195 204 216 238 267 300 317 326 333 337 341 345 348 347 342 333 327 325 324 328 329 333 330 326 314 312 317 307 303 302 301 303 305 303 305 309 311 310 311 310
203 198 200 205 209 217 234 267 295 313 319 328 331 336 341 345 345 344 338 332 323 326 326 330 334 334 337 329 316 312 307 304 306 305 304 309 307 309 307 306 302 299 298
202 203 206 205 207 217 232 265 289 302 313 321 326 331 338 342 342 343 340 338 328 325 327 332 332 334 343 338 322 310 303 305 306 300 304 310 306 305 301 298 292 284 284
204 207 204 203 202 210 236 267 289 303 312 320 324 327 332 339 340 340 339 339 335 325 325 328 329 330 333 339 339 320 312 313 312 309 309 312 313 310 306 305 301 283 281
207 204 202 198 202 210 238 289 300 307 313 319 324 327 329 333 338 337 338 338 336 334 322 326 329 326 324 329 327 325 325 329 323 315 315 317 327 334 336 335 327 275 269
203 199 200 199 207 224 252 283 302 308 313 319 321 325 326 328 333 334 335 338 335 336 329 324 325 330 327 322 319 316 310 315 320 319 323 330 340 343 344 346 338 271 249
198 197 198 205 221 240 262 280 295 305 311 318 318 318 321 324 327 329 330 336 336 334 333 326 323 326 331 317 311 326 319 317 318 324 329 329 336 335 346 353 346 309 253
194 193 202 213 229 248 271 284 295 302 312 318 319 319 320 323 326 324 325 333 334 335 334 328 319 320 332 327 316 324 320 327 328 330 326 325 328 328 330 334 340 328 249
191 197 207 221 240 262 275 283 288 301 311 315 318 318 319 323 326 319 320 327 331 333 336 332 315 308 324 328 320 328 324 320 325 322 322 325 324 320 307 311 92 110 128
193 203 217 236 254 264 272 276 288 304 308 312 319 314 317 324 323 316 315 322 328 330 331 331 320 298 306 317 307 316 316 321 319 323 329 331 330 328 304 187 178 155 129
200 213 232 245 255 260 266 273 286 292 301 309 316 316 321 324 322 315 312 316 322 325 328 328 323 300 293 300 298 298 305 313 317 325 340 0 28 55 81 113 129 135 125
213 225 241 246 246 255 265 273 279 282 294 303 308 311 316 321 322 318 313 311 315 320 324 326 321 307 285 290 287 287 293 300 294 301 87 67 69 82 97 113 129 132 128
220 239 253 254 253 259 265 271 274 284 294 299 303 306 311 314 317 317 314 309 311 314 320 323 319 307 283 280 276 280 285 279 239 175 142 114 105 105 109 118 126 127 124
246 252 252 251 256 260 261 264 273 281 288 295 300 301 306 308 310 310 312 310 307 310 314 318 319 306 281 270 269 268 267 226 183 166 154 130 123 124 120 123 127 128 128
248 252 254 256 257 259 260 265 272 280 285 290 292 299 301 303 305 303 299 304 304 303 308 313 317 304 276 263 261 249 215 187 175 175 164 151 143 139 132 132 133 134 135
254 258 256 255 258 260 262 267 274 278 282 286 290 296 296 296 301 303 292 292 300 296 298 303 309 302 273 254 238 212 187 184 186 182 172 166 160 156 150 145 151 157 159
257 259 262 265 265 266 267 269 271 274 277 281 286 288 289 289 293 297 292 281 290 287 285 289 296 295 270 233 204 191 184 197 198 184 181 177 176 174 172 165 164 159 151
255 259 263 264 265 268 271 273 274 276 277 279 281 283 286 289 290 291 288 274 277 280 272 270 271 268 224 190 183 188 204 206 200 192 192 191 188 187 180 171 167 162 153
257 259 261 263 266 267 270 272 273 273 275 278 281 285 287 287 284 283 280 270 263 270 263 257 252 241 227 203 203 218 213 202 197 196 197 204 201 196 190 181 176 165 157
263 262 261 262 264 264 266 267 269 272 275 277 279 280 281 281 280 277 271 265 259 259 258 250 244 239 233 229 219 227 217 207 200 198 201 201 203 205 200 192 182 167 166
263 263 266 268 268 267 268 269 270 271 271 273 275 276 276 274 275 274 265 258 255 253 252 247 240 236 235 233 227 220 218 214 208 202 203 208 207 204 201 194 186 180 177